Pueblo, CO

12:31 PM MST on January 21, 2018 (GMT -0700)
Pueblo Memorial

Weather History for KPUB - June, 2013

Change the Weather History Date:

Friday, June 14, 2013

  Actual Average Record
Temperature  
Mean Temperature 79 °F 70 °F  
Max Temperature 94 °F 87 °F 102 °F (2006)
Min Temperature 64 °F 52 °F 40 °F (2001)
Degree Days  
Heating Degree Days 0 1  
Month to date heating degree days 17 20  
Since 1 June heating degree days 17 20  
Since 1 July heating degree days 5724 5633  
Cooling Degree Days 14 5  
Month to date cooling degree days 102 54  
Year to date cooling degree days 175 88  
Since 1 June cooling degree days 102 54  
Growing Degree Days 30 (Base 50)    
Moisture  
Dew Point 39 °F    
Average Humidity 26    
Maximum Humidity 42    
Minimum Humidity 10    
Precipitation  
Precipitation 0.00 in 0.04 in 0.64 in (1901)
Month to date precipitation 0.24 0.65  
Year to date precipitation 2.17 5.14  
Snow  
Snow 0.00 in 0.00 in 0.00 in (2002)
Month to date snowfall T 0.0  
Since 1 June snowfall T 0.0  
Since 1 July snowfall 24.4 31.8  
Snow Depth 0.00 in    
Sea Level Pressure  
Sea Level Pressure 29.78 in    
Wind  
Wind Speed 10 mph (SE)    
Max Wind Speed 32 mph    
Max Gust Speed 41 mph    
Visibility 9 miles    
Events      
T = Trace of Precipitation, MM = Missing Value Source: NWS Daily Summary

Daily Weather History Graph

Daily Weather History Graph

Search for Another Location

Airport or City:

Trip Planner

Search our weather history database for the weather conditions in past years. The results will help you decide how hot, cold, wet, or windy it might be!

Date:

Astronomy

Jun. 14, 2013 Rise Set
Actual Time 5:33 AM MDT 8:22 PM MDT
Civil Twilight 5:02 AM MDT 8:54 PM MDT
Nautical Twilight 4:22 AM MDT 9:34 PM MDT
Astronomical Twilight 3:37 AM MDT 10:19 PM MDT
Moon 11:07 AM MDT (6/14) No Moon Set
Length of Visible Light 15h 52m
Length of Day
14h 48m
Waxing Crescent, 31% of the Moon is Illuminated
Jun 14
Waxing Crescent
Jun 16
First Quarter
Jun 23
Full
Jun 29
Last Quarter
Jul 8
New

Hourly Weather History & Observations

Time (MDT) Temp. Dew Point Humidity Pressure Visibility Wind Dir Wind Speed Gust Speed Precip Events Conditions
12:53 AM 70.0 °F 39.0 °F 32% 29.80 in 10.0 mi SE 3.5 mph - N/A   Clear
1:53 AM 70.0 °F 39.0 °F 32% 29.79 in 10.0 mi WNW 8.1 mph - N/A   Clear
2:53 AM 73.9 °F 39.0 °F 28% 29.74 in 10.0 mi WNW 11.5 mph - N/A   Clear
3:53 AM 78.1 °F 37.0 °F 23% 29.73 in 10.0 mi West 10.4 mph - N/A   Clear
4:53 AM 75.9 °F 37.9 °F 25% 29.73 in 10.0 mi WSW 8.1 mph - N/A   Clear
5:53 AM 73.9 °F 39.9 °F 29% 29.73 in 10.0 mi SW 4.6 mph - N/A   Clear
6:53 AM 73.0 °F 39.9 °F 30% 29.75 in 9.0 mi East 4.6 mph - N/A   Clear
7:53 AM 79.0 °F 39.0 °F 24% 29.75 in 10.0 mi Calm Calm - N/A   Clear
8:53 AM 81.0 °F 39.0 °F 22% 29.75 in 10.0 mi Calm Calm - N/A   Clear
9:53 AM 84.0 °F 43.0 °F 24% 29.75 in 10.0 mi SSE 3.5 mph - N/A   Clear
10:53 AM 87.1 °F 39.0 °F 18% 29.75 in 10.0 mi SSE 9.2 mph - N/A   Clear
11:53 AM 88.0 °F 34.0 °F 15% 29.75 in 10.0 mi South 6.9 mph - N/A   Clear
12:53 PM 91.9 °F 34.0 °F 13% 29.71 in 10.0 mi ESE 5.8 mph - N/A   Clear
1:53 PM 91.9 °F 28.0 °F 10% 29.68 in 10.0 mi ESE 9.2 mph - N/A   Clear
2:53 PM 90.0 °F 33.1 °F 13% 29.67 in 10.0 mi South 19.6 mph 25.3 mph N/A   Scattered Clouds
3:53 PM 91.0 °F 32.0 °F 12% 29.64 in 10.0 mi South 20.7 mph 35.7 mph N/A   Clear
4:53 PM 90.0 °F 32.0 °F 13% 29.64 in 10.0 mi SSW 10.4 mph - N/A   Clear
5:40 PM 84.2 °F 37.4 °F 19% 29.92 in 2.0 mi ENE 31.1 mph 35.7 mph N/A   Haze
5:51 PM 84.2 °F 35.6 °F 18% 29.94 in 8.0 mi East 23.0 mph - N/A   Partly Cloudy
5:53 PM 84.0 °F 36.0 °F 18% 29.73 in 10.0 mi East 27.6 mph 38.0 mph N/A   Scattered Clouds
5:58 PM 82.4 °F 42.8 °F 25% 29.96 in 2.5 mi ESE 25.3 mph 41.4 mph N/A   Haze
6:11 PM 80.6 °F 42.8 °F 26% 29.97 in 3.0 mi ESE 31.1 mph 40.3 mph N/A   Haze
6:21 PM 78.8 °F 44.6 °F 30% 29.98 in 4.0 mi ESE 21.9 mph 33.4 mph N/A   Haze
6:32 PM 78.8 °F 44.6 °F 30% 29.95 in 2.5 mi ESE 31.1 mph 36.8 mph N/A   Haze
6:42 PM 78.8 °F 42.8 °F 28% 29.95 in 3.0 mi East 28.8 mph 35.7 mph N/A   Haze
6:53 PM 77.0 °F 43.0 °F 30% 29.75 in 6.0 mi ESE 26.5 mph 36.8 mph N/A   Haze
7:53 PM 75.9 °F 44.1 °F 32% 29.75 in 10.0 mi East 15.0 mph - N/A   Clear
8:53 PM 73.0 °F 44.1 °F 35% 29.78 in 10.0 mi East 6.9 mph - N/A   Clear
9:53 PM 72.0 °F 44.1 °F 37% 29.79 in 10.0 mi ENE 10.4 mph - N/A   Clear
10:53 PM 69.1 °F 43.0 °F 39% 29.81 in 10.0 mi East 10.4 mph - N/A   Clear
11:53 PM 66.9 °F 43.0 °F 42% 29.78 in 10.0 mi NE 10.4 mph - N/A   Clear